Date String (YYYY-MM-DD hh:mm:ss) UTC,Instrument flags,Ambient pressure (hPa),Sample flow (lpm),Bypass flow (lpm),Sample temperature (°C),Ambient temperature (°C),ASC tube jacket temperature (°C),LED temperature (°C),Box temperature (°C),Sample RH (%),Span deviation,Mass concentration (μg/m³),Mass concentration (μg/m³),Mass concentration (μg/m³)
DateTimeUTC,F1_M11,P_M11,Q1_M11,Q2_M11,T1_M11,T2_M11,T3_M11,T4_M11,T5_M11,U1_M11,ZSPAN_M11,X0_M11,X2_M11,X1_M11
2021-08-31 03:00:00,,0823.9,5.01,0.00,29.2,25.5,00.0,38.4,30.4,12.8,0002.7,0044.47,0030.62,0029.08
2021-08-31 03:01:00,,0824.0,5.00,0.00,29.1,25.9,00.0,38.3,30.5,12.8,0002.6,0044.51,0030.65,0029.08
2021-08-31 03:02:00,,0824.0,5.01,0.00,29.1,26.4,00.0,38.3,30.6,12.9,0002.5,0044.53,0030.73,0029.11
2021-08-31 03:03:00,,0824.0,4.99,0.00,29.1,26.8,00.0,38.3,30.7,12.9,0002.2,0044.07,0030.69,0029.08
2021-08-31 03:04:00,,0824.0,5.01,0.00,29.1,27.2,00.0,38.2,30.8,12.9,0002.1,0043.70,0030.66,0029.06
2021-08-31 03:05:00,,0824.0,5.00,0.00,29.1,27.5,00.0,38.2,30.9,12.8,0001.9,0043.69,0030.67,0029.07
2021-08-31 03:06:00,,0824.0,4.99,0.00,29.1,27.8,00.0,38.2,30.9,12.8,0001.9,0043.41,0030.73,0029.12
2021-08-31 03:07:00,,0824.0,5.00,0.00,29.2,28.0,00.0,38.3,31.0,12.8,0002.1,0043.64,0030.80,0029.16
2021-08-31 03:08:00,,0824.0,4.99,0.00,29.2,28.1,00.0,38.3,31.1,12.8,0002.0,0043.55,0030.83,0029.20
2021-08-31 03:09:00,,0824.0,5.01,0.00,29.3,28.3,00.0,38.3,31.1,12.8,0001.9,0043.27,0030.83,0029.20
2021-08-31 03:10:00,,0824.0,5.00,0.00,29.3,28.4,00.0,38.3,31.2,12.7,0002.0,0042.76,0030.88,0029.21
2021-08-31 03:11:00,,0824.0,4.98,0.00,29.4,28.5,00.0,38.3,31.2,12.7,0002.0,0042.06,0030.93,0029.25
2021-08-31 03:12:00,,0824.0,5.00,0.00,29.4,28.6,00.0,38.4,31.3,12.7,0002.0,0041.92,0030.94,0029.26
2021-08-31 03:13:00,,0824.0,5.00,0.00,29.5,28.7,00.0,38.4,31.3,12.6,0002.0,0041.98,0030.90,0029.28
2021-08-31 03:14:00,,0824.1,4.99,0.00,29.5,28.2,00.0,38.4,31.2,12.6,0002.3,0042.16,0030.96,0029.34
2021-08-31 03:15:00,,0824.0,4.99,0.00,29.4,26.2,00.0,38.4,30.8,12.7,0002.5,0042.65,0030.97,0029.38
2021-08-31 03:16:00,,0824.0,5.01,0.00,29.2,25.3,00.0,38.4,30.4,12.7,0002.4,0042.33,0030.93,0029.35
2021-08-31 03:17:00,,0824.0,5.01,0.00,29.1,25.7,00.0,38.3,30.5,12.8,0002.4,0042.89,0030.93,0029.31
2021-08-31 03:18:00,,0824.0,5.00,0.00,29.0,26.1,00.0,38.3,30.6,12.8,0002.2,0042.06,0030.83,0029.25
2021-08-31 03:19:00,,0824.0,5.01,0.00,29.0,26.6,00.0,38.2,30.7,12.8,0002.2,0041.96,0030.76,0029.21
2021-08-31 03:20:00,,0824.0,5.00,0.00,29.0,27.0,00.0,38.2,30.7,12.8,0002.2,0041.94,0030.71,0029.20
2021-08-31 03:21:00,,0824.0,4.99,0.00,29.1,27.4,00.0,38.2,30.8,12.8,0002.3,0041.99,0030.63,0029.15
2021-08-31 03:22:00,,0824.0,5.01,0.00,29.1,27.6,00.0,38.2,30.9,12.7,0002.4,0042.17,0030.55,0029.08
2021-08-31 03:23:00,,0824.1,4.99,0.00,29.1,27.8,00.0,38.2,31.0,12.7,0002.5,0042.33,0030.53,0029.07
2021-08-31 03:24:00,,0824.1,5.00,0.00,29.2,28.0,00.0,38.2,31.0,12.7,0002.7,0042.66,0030.51,0029.03
2021-08-31 03:25:00,,0824.0,5.00,0.00,29.2,28.2,00.0,38.2,31.1,12.7,0002.4,0042.06,0030.46,0028.98
2021-08-31 03:26:00,,0824.1,5.00,0.00,29.3,28.3,00.0,38.3,31.1,12.6,0002.2,0041.62,0030.45,0028.94
2021-08-31 03:27:00,,0824.1,5.00,0.00,29.3,28.4,00.0,38.3,31.2,12.6,0002.4,0042.00,0030.47,0028.94
2021-08-31 03:28:00,,0824.1,4.99,0.00,29.4,28.5,00.0,38.3,31.2,12.6,0002.5,0042.15,0030.47,0028.96
2021-08-31 03:29:00,,0824.1,5.00,0.00,29.4,28.6,00.0,38.3,31.3,12.5,0002.6,0041.88,0030.51,0028.98
2021-08-31 03:30:00,,0824.1,5.02,0.00,29.5,28.6,00.0,38.4,31.3,12.4,0002.5,0041.48,0030.55,0028.99
2021-08-31 03:31:00,,0824.1,4.98,0.00,29.5,28.7,00.0,38.4,31.4,12.4,0002.6,0041.88,0030.60,0029.01
2021-08-31 03:32:00,,0824.1,5.00,0.00,29.5,28.7,00.0,38.4,31.4,12.4,0002.6,0043.08,0030.66,0029.04
2021-08-31 03:33:00,,0824.1,5.00,0.00,29.5,27.7,00.0,38.4,31.2,12.4,0002.6,0043.23,0030.69,0029.05
2021-08-31 03:34:00,,0824.1,5.01,0.00,29.3,25.7,00.0,38.4,30.5,12.5,0002.5,0044.15,0030.67,0029.05
2021-08-31 03:35:00,,0824.1,5.00,0.00,29.2,25.4,00.0,38.4,30.4,12.7,0002.5,0044.67,0030.74,0029.06
2021-08-31 03:36:00,,0824.1,5.01,0.00,29.1,25.8,00.0,38.3,30.5,12.7,0002.5,0044.77,0030.75,0029.06
2021-08-31 03:37:00,,0824.1,5.00,0.00,29.1,26.3,00.0,38.3,30.6,12.6,0002.6,0045.03,0030.80,0029.08
2021-08-31 03:38:00,,0824.1,5.00,0.00,29.1,26.7,00.0,38.3,30.7,12.6,0002.5,0044.76,0030.87,0029.11
2021-08-31 03:39:00,,0824.1,4.99,0.00,29.1,27.1,00.0,38.3,30.8,12.7,0002.4,0044.94,0030.93,0029.12
2021-08-31 03:40:00,,0824.1,5.00,0.00,29.1,27.4,00.0,38.3,30.8,12.7,0002.4,0045.83,0030.92,0029.13
2021-08-31 03:41:00,,0824.1,5.01,0.00,29.1,27.7,00.0,38.3,30.9,12.6,0002.5,0046.24,0030.89,0029.13
2021-08-31 03:42:00,,0824.1,4.99,0.00,29.2,27.9,00.0,38.3,31.0,12.6,0002.6,0045.73,0030.87,0029.15
2021-08-31 03:43:00,,0824.1,5.00,0.00,29.2,28.1,00.0,38.3,31.0,12.6,0002.7,0044.75,0030.90,0029.16
2021-08-31 03:44:00,,0824.1,5.00,0.00,29.3,28.2,00.0,38.3,31.1,12.6,0002.7,0044.40,0030.92,0029.18
2021-08-31 03:45:00,,0824.1,4.99,0.00,29.3,28.3,00.0,38.3,31.1,12.5,0002.6,0043.90,0030.97,0029.20
2021-08-31 03:46:00,,0824.1,5.02,0.00,29.3,28.4,00.0,38.3,31.2,12.6,0002.5,0043.40,0030.93,0029.20
2021-08-31 03:47:00,,0824.0,4.99,0.00,29.4,28.5,00.0,38.3,31.2,12.5,0002.6,0043.59,0030.88,0029.18
2021-08-31 03:48:00,,0824.0,4.99,0.00,29.4,28.6,00.0,38.4,31.3,12.5,0002.6,0043.53,0030.83,0029.15
2021-08-31 03:49:00,,0824.1,4.99,0.00,29.5,28.6,00.0,38.4,31.3,12.4,0002.7,0043.15,0030.78,0029.13
2021-08-31 03:50:00,,0824.1,5.00,0.00,29.5,28.7,00.0,38.4,31.4,12.4,0002.8,0042.65,0030.70,0029.11
2021-08-31 03:51:00,,0824.1,5.00,0.00,29.6,28.6,00.0,38.5,31.4,12.3,0002.9,0041.41,0030.63,0029.07
2021-08-31 03:52:00,,0824.0,5.01,0.00,29.5,27.0,00.0,38.4,31.0,12.4,0002.9,0041.36,0030.61,0029.02
2021-08-31 03:53:00,,0824.0,4.99,0.00,29.4,26.3,00.0,38.4,30.8,12.5,0002.9,0041.80,0030.65,0029.02
2021-08-31 03:54:00,,0824.1,5.01,0.00,29.3,26.5,00.0,38.4,30.8,12.5,0002.8,0042.61,0030.63,0029.00
2021-08-31 03:55:00,,0824.0,4.99,0.00,29.3,26.9,00.0,38.4,30.9,12.5,0002.9,0042.17,0030.57,0028.96
2021-08-31 03:56:00,,0824.0,5.00,0.00,29.3,27.3,00.0,38.4,30.9,12.6,0002.8,0042.01,0030.56,0028.93
2021-08-31 03:57:00,,0824.0,5.00,0.00,29.3,27.6,00.0,38.4,31.0,12.5,0002.8,0040.98,0030.55,0028.91
2021-08-31 03:58:00,,0824.1,5.00,0.00,29.3,27.8,00.0,38.4,31.1,12.5,0002.7,0040.66,0030.55,0028.90
2021-08-31 03:59:00,,0824.0,5.00,0.00,29.3,28.0,00.0,38.4,31.1,12.4,0002.8,0040.88,0030.55,0028.89
